Location: Lawrence Hall of Science
(37.8785°N, 122.2415°W)
Time: 15:23:04
(UTC-07:00)

Cosmos 1461 - Visible Passes

Search period start: 24 April 2018 00:00
Search period end: 04 May 2018 00:00
Orbit: 501 x 669 km, 65.0° (Epoch: 23 April)

Date Brightness Start Highest point End Pass type
(mag) Time Alt. Az. Time Alt. Az. Time Alt. Az.
24 Apr 6.0 00:25:36 10° NNW 00:26:21 14° NW 00:26:21 14° NW visible
24 Apr 5.2 22:53:39 10° N 22:56:11 20° NNE 22:56:11 20° NNE visible
25 Apr 6.1 00:32:14 10° NW 00:32:36 12° NW 00:32:36 12° NW visible
25 Apr 4.9 22:59:43 10° NNW 23:02:28 27° NNE 23:02:28 27° NNE visible
26 Apr 4.7 23:05:57 10° NNW 23:08:47 33° N 23:08:47 33° N visible
27 Apr 5.4 21:35:05 10° NNE 21:37:14 13° NE 21:38:43 11° ENE visible
27 Apr 4.6 23:12:21 10° NNW 23:15:09 35° NNW 23:15:09 35° NNW visible
28 Apr 4.9 21:40:38 10° N 21:44:01 19° NE 21:45:06 18° ENE visible
28 Apr 4.8 23:18:54 10° NW 23:21:32 31° NW 23:21:32 31° NW visible
29 Apr 4.4 21:46:36 10° N 21:50:43 28° NE 21:51:32 27° ENE visible
29 Apr 5.2 23:25:41 10° NW 23:27:58 23° WNW 23:27:58 23° WNW visible
30 Apr 3.7 21:52:46 10° NNW 21:57:20 44° NE 21:58:01 41° E visible
30 Apr 5.6 23:32:49 10° WNW 23:34:27 16° W 23:34:27 16° W visible
01 May 3.1 21:59:06 10° NNW 22:03:51 73° ENE 22:04:32 61° ESE visible
02 May 5.1 20:27:39 10° N 20:30:38 16° NE 20:33:35 10° E visible
02 May 3.3 22:05:35 10° NW 22:10:18 67° WSW 22:11:06 55° S visible
03 May 4.6 20:33:30 10° N 20:37:22 24° NE 20:41:08 10° ESE visible
03 May 4.1 22:12:15 10° NW 22:16:39 39° WSW 22:17:44 34° SW visible
